This demonstration page uses our WeatherBlox Daily Observations layout. Learn more.

41.55636, -103.73856

Hourly Observations for July 22, 2016

Temp ( °F °C ) Dew Point ( °F °C ) Humidity (%) Winds ( mph kmh ) Pressure ( in mb ) Visibility ( mi km ) Precip ( " mm )
12:53 am 00:53 Clear 71 21.7 61 16.1 71 71 ESE 6 9 29.96 1015 10 16.0934 0 0
1:53 am 01:53 Clear 70 21.1 64 17.8 82 82 ENE 5 7 29.95 1014 10 16.0934 0 0
2:53 am 02:53 Clear 71 21.7 64 17.8 79 79 N 5 7 29.95 1014 10 16.0934 0 0
3:53 am 03:53 Clear 72 22.2 65 18.3 79 79 NNE 7 11 29.93 1014 10 16.0934 0 0
4:53 am 04:53 Clear 71 21.7 65 18.3 81 81 Calm 29.93 1014 10 16.0934 0 0
5:53 am 05:53 Sunny 70 21.1 65 18.3 84 84 undefined N/A 29.95 1014 10 16.0934 0 0
6:53 am 06:53 Sunny 72 22.2 65 18.3 79 79 Calm 29.96 1015 10 16.0934 0 0
7:53 am 07:53 Sunny 76 24.4 65 18.3 69 69 Calm 29.97 1015 10 16.0934 0 0
8:53 am 08:53 Sunny 80 26.7 67 19.4 64 64 SE 6 9 29.98 1015 10 16.0934 0 0
9:53 am 09:53 Sunny 83 28.3 67 19.4 59 59 WSW 3 6 29.98 1015 10 16.0934 0 0
10:53 am 10:53 Sunny 88 31.1 67 19.4 50 50 Calm 29.97 1015 10 16.0934 0 0
11:53 am 11:53 Sunny 89 31.7 67 19.4 48 48 E 6 9 29.96 1015 10 16.0934 0 0
12:53 pm 12:53 Mostly Sunny 94 34.4 64 17.8 37 37 ESE 7 11 29.93 1014 10 16.0934 0 0
1:51 pm 13:51 Sunny with Nearby Thunderstorms 95 35 66 19 39 39 VRB 5 7 29.68 1005 10 16.0934 0 0
1:53 pm 13:53 Sunny with Nearby Thunderstorms 95 35 66 18.9 39 39 E 7 11 29.89 1012 10 16.0934 0 0
2:05 pm 14:05 Sunny with Thunderstorms 96 35.6 66 18.9 37 37 ESE 8 13 29.68 1005 10 16.0934 0 0
2:53 pm 14:53 Mostly Cloudy with Light Thunderstorms 80 26.7 61 16.1 52 52 E 16 26 29.89 1012 10 16.0934 0 0.0254
3:41 pm 15:41 Partly Cloudy with Nearby Thunderstorms 90 32.2 62 16.7 39 39 ENE 12 19 29.65 1004 10 16.0934 0 0.0254
3:53 pm 15:53 Sunny 92 33.3 61 16.1 36 36 ENE 10 17 29.84 1011 10 16.0934 0 0.0254
4:53 pm 16:53 Mostly Sunny 85 29.4 65 18.3 51 51 ENE 17 28 29.86 1011 10 16.0934 0 0
5:53 pm 17:53 Mostly Cloudy 81 27.2 64 17.8 57 57 E 24 39 29.87 1012 10 16.0934 0 0.0254
6:53 pm 18:53 Mostly Sunny 79 26.1 61 16.1 54 54 E 18 30 29.86 1011 10 16.0934 0 0
7:53 pm 19:53 Mostly Sunny 76 24.4 60 15.6 58 58 ESE 16 26 29.86 1011 10 16.0934 0 0
8:53 pm 20:53 Clear 72 22.2 60 15.6 66 66 SE 15 24 29.87 1011 10 16.0934 0 0
9:53 pm 21:53 Clear 70 21.1 59 15 68 68 SE 15 24 29.88 1012 10 16.0934 0 0
10:53 pm 22:53 Clear 68 20 59 15 73 73 ESE 10 17 29.86 1011 10 16.0934 0 0
11:53 pm 23:53 Clear 67 19.4 60 15.6 79 79 ESE 8 13 29.85 1011 10 16.0934 0 0

Powered by AerisWeather